Location: Praha
(50.0830°N, 14.4670°E)
Time: 06:08:40
(UTC+01:00)

ISS - Pass Details

Date: 10 February 2020
Orbit: 415 x 423 km, 51.6° (Epoch: 27 February)

Event Time Altitude Azimuth Distance (km) Brightness Sun altitude
Rises 17:49:15 0° 279° (W) 2,379 1.5 -6.7°
Reaches altitude 10° 17:52:57 10° 237° (WSW) 1,507 0.4 -7.3°
Maximum altitude 17:53:37 11° 225° (SW) 1,477 0.1 -7.4°
Drops below altitude 10° 17:54:18 10° 214° (SW) 1,504 -0.2 -7.5°
Sets 17:57:58 0° 172° (S) 2,359 0.1 -8.1°
